Theta_e
337 344 346 345 345 345 345 346 347 349 350 353 347 346 345 344 344 347 356 356 355 355 354 353 354 356 356 357 357 357 357 356 354 353 345 345 353 351 338 334 336 326 320 320
339 344 344 345 347 348 345 344 345 344 345 348 346 342 344 343 344 344 358 359 358 359 359 355 354 355 357 357 356 355 355 353 346 346 348 349 333 329 330 330 320 318 317 319
340 339 346 348 346 343 343 343 345 347 344 347 346 347 344 342 344 344 357 360 363 362 363 360 358 356 356 357 355 352 349 346 347 336 334 333 333 334 334 332 329 319 317 316
339 343 351 345 342 341 343 344 342 344 345 349 348 344 343 343 342 343 358 361 362 363 361 360 358 357 355 350 349 345 335 335 336 336 336 333 332 328 323 323 319 319 316 316
340 339 340 341 341 343 342 344 341 342 344 349 344 342 342 339 339 343 357 359 361 360 358 356 354 351 349 343 334 333 333 334 334 332 330 328 325 325 322 329 320 316 316 317
338 339 339 339 340 340 342 340 342 341 342 342 346 348 348 341 342 347 356 358 359 357 355 352 350 348 339 333 330 330 330 329 330 330 325 321 324 324 325 317 316 317 321 321
336 337 339 340 340 339 344 347 345 343 346 347 348 347 346 346 354 358 357 358 355 352 351 349 346 339 334 333 331 331 333 333 330 325 320 318 318 317 315 315 317 322 328 328
336 338 339 336 337 341 347 341 342 347 356 358 356 355 357 360 358 358 357 354 351 348 344 339 338 334 333 333 334 331 327 323 319 319 317 315 315 315 316 320 323 326 326 327
335 336 338 334 337 342 340 342 341 339 339 346 349 358 360 359 358 357 353 350 347 342 338 337 335 337 339 337 329 323 320 319 319 318 315 315 315 317 323 327 327 326 325 325
339 336 336 334 334 338 338 340 340 340 340 342 346 345 347 358 356 353 350 347 343 340 340 340 339 338 335 326 322 320 318 317 316 316 315 318 323 326 326 326 325 325 324 324
337 339 337 333 332 334 334 336 338 343 343 354 354 359 358 356 353 351 349 345 343 343 341 339 338 332 325 322 319 318 317 316 317 318 322 325 325 325 325 325 324 323 323 322
336 337 337 335 333 332 335 336 336 342 348 350 354 357 357 353 350 349 346 345 344 342 340 338 334 327 322 320 320 319 319 321 325 327 324 325 324 320 315 316 316 316 316 316
335 332 333 335 334 335 337 337 335 339 348 353 356 357 356 351 349 347 346 346 343 341 339 336 331 324 320 321 320 320 326 326 326 326 326 325 323 322 321 322 320 317 316 316
332 331 334 333 334 333 334 334 335 340 352 354 357 357 353 350 348 347 346 344 342 339 337 330 322 320 320 319 319 324 328 327 325 325 325 325 325 325 325 324 324 324 323 321
333 332 332 331 332 335 338 337 341 351 354 357 357 354 351 348 347 346 345 342 340 337 333 325 321 320 320 320 320 326 328 325 325 325 325 325 325 325 324 324 323 323 323 324
333 334 332 330 336 340 343 346 346 352 355 356 353 351 349 347 346 345 343 341 337 335 327 322 321 321 321 322 324 328 327 324 325 325 325 325 325 325 324 323 323 323 323 322
332 332 335 336 341 342 345 345 348 352 353 354 352 350 348 347 346 345 342 339 335 329 324 324 325 322 322 323 325 329 328 324 324 325 326 325 324 324 324 324 323 323 323 322
337 341 339 341 342 340 345 348 351 353 352 351 352 351 350 349 347 344 341 336 334 329 329 328 329 324 324 325 325 329 329 327 325 324 325 326 326 324 324 324 324 324 322 322
338 337 333 336 334 331 341 344 347 350 351 352 351 351 349 348 345 342 340 337 335 334 335 334 334 329 327 330 328 330 330 329 328 327 325 325 326 325 324 324 323 322 322 323
334 335 332 331 330 329 333 343 348 348 350 350 350 349 348 347 343 342 341 339 339 337 336 335 335 333 333 332 331 332 331 330 329 328 327 326 326 326 325 325 326 324 324 323
335 331 330 331 328 328 333 329 340 347 348 348 348 347 347 347 344 344 343 342 340 340 338 336 335 334 335 336 334 331 332 332 331 330 329 328 327 326 327 325 326 323 323 323
334 335 334 329 330 331 327 330 327 335 344 347 347 345 344 344 344 344 343 342 341 337 338 338 336 337 336 335 335 334 332 331 331 329 330 329 328 327 327 326 321 323 324 324
336 338 336 336 338 339 340 341 341 343 343 344 345 344 343 343 341 340 340 339 339 337 336 335 336 337 335 333 334 333 333 331 329 329 328 329 330 330 327 326 327 324 323 323
339 340 340 339 339 340 340 341 342 342 342 342 341 341 340 339 338 337 337 337 337 335 332 332 331 332 331 331 331 331 331 330 329 327 327 327 325 320 323 324 324 321 321 322
330 338 337 337 337 338 338 338 339 339 339 339 339 339 338 336 335 336 335 335 334 333 332 331 330 331 330 331 331 329 329 327 326 327 329 327 324 323 324 324 320 321 323 323
334 334 334 332 332 331 331 330 330 331 332 331 331 331 332 332 332 333 332 332 331 326 328 329 329 328 329 328 328 327 327 327 327 328 328 328 323 324 323 322 324 323 321 322
330 330 328 328 328 327 327 327 328 327 328 328 329 329 329 329 329 329 329 328 329 329 327 328 328 328 329 328 327 326 327 327 326 327 327 327 327 325 324 323 320 322 323 324
Wind_Speed
26 28 18 13 13 31 23 19 15 16 18 15 11 17 17 10 36 55 11 17 14 14 13 18 25 32 37 37 37 37 32 25 23 15 13 25 20 7 2 7 6 14 12 12
24 24 18 9 5 33 16 22 18 21 13 15 25 24 26 17 17 42 11 16 18 18 16 23 28 31 32 34 33 27 25 22 13 15 8 9 7 2 2 5 5 6 10 9
19 22 18 9 23 8 14 27 24 19 19 19 11 18 24 14 2 46 17 18 18 20 21 26 29 33 34 31 28 23 20 21 24 17 16 9 6 6 10 7 12 9 13 15
14 7 13 16 23 20 19 26 13 21 18 26 25 24 25 21 21 15 18 21 23 22 21 24 26 29 27 27 33 35 34 30 21 12 10 10 10 9 4 3 6 12 13 12
13 15 16 11 18 26 23 22 25 21 28 21 32 23 10 32 28 17 20 21 23 24 23 25 24 30 38 41 37 37 33 28 24 21 17 14 11 5 4 9 12 9 8 8
11 13 21 17 2 5 25 9 29 15 12 13 30 15 12 33 37 20 27 23 24 22 23 24 29 38 39 37 36 35 29 24 19 11 11 13 8 5 7 6 3 4 6 9
12 10 10 0 7 5 5 2 21 6 9 6 15 17 22 42 36 34 28 29 27 27 29 32 33 34 33 33 29 22 15 12 12 12 13 8 4 1 1 1 2 3 2 5
13 12 12 7 7 3 3 5 29 16 24 33 23 29 37 39 37 35 34 33 30 31 32 31 32 32 27 23 18 15 14 14 14 11 9 6 3 4 3 5 8 10 10 6
13 12 10 7 9 17 12 9 10 3 17 28 26 25 24 29 34 35 35 32 31 31 30 30 27 23 20 19 19 19 17 16 14 11 9 7 6 7 10 10 6 5 3 2
14 15 11 9 9 11 3 10 12 15 20 18 26 21 28 27 34 34 33 32 31 30 28 25 24 20 19 21 20 18 17 15 13 11 10 8 9 11 7 5 5 5 3 3
6 10 9 18 27 17 9 7 7 7 6 30 32 35 32 30 33 35 32 31 31 29 28 27 23 21 22 21 19 18 16 15 12 10 11 15 10 10 10 10 10 7 7 2
5 15 13 7 11 14 5 6 4 7 6 13 25 29 29 30 33 32 33 33 29 27 27 26 23 23 21 19 17 15 15 13 12 10 11 9 10 8 8 7 3 1 2 2
5 19 21 13 12 8 6 1 2 6 8 16 25 28 29 33 32 32 33 30 29 29 28 26 25 23 21 19 16 14 13 14 14 8 11 6 7 5 5 3 1 2 3 5
26 19 18 16 4 2 5 6 4 6 15 15 23 28 33 34 33 34 32 28 28 29 28 26 25 23 20 18 17 16 14 14 11 12 10 9 9 6 6 6 4 5 1 3
9 13 21 11 10 7 4 10 10 16 18 19 27 34 34 38 35 34 30 29 29 29 27 25 23 21 20 18 17 18 15 15 13 11 9 9 9 7 6 5 4 5 8 10
13 24 19 20 12 9 10 11 17 19 22 26 32 34 36 39 36 31 30 30 31 28 26 24 22 21 20 18 16 16 16 12 13 11 11 9 8 7 8 8 8 9 8 7
5 30 24 18 7 15 17 20 22 24 26 29 28 28 34 33 31 30 29 28 26 25 25 23 21 20 19 16 16 14 13 15 15 11 12 9 10 12 9 7 8 8 6 7
4 11 14 14 20 46 11 24 29 30 30 30 31 31 32 32 32 31 29 27 24 22 21 21 19 19 18 16 16 15 13 14 12 14 11 10 13 11 11 12 10 11 9 10
2 5 20 22 15 33 30 7 28 28 30 29 29 29 29 28 29 28 27 26 23 23 22 19 20 18 18 15 15 15 14 14 17 14 12 14 16 17 18 15 16 16 12 10
6 10 13 13 21 6 15 18 17 19 22 23 23 25 26 25 27 26 25 24 21 19 20 20 21 19 16 16 16 14 12 14 15 19 19 19 20 18 17 17 15 18 12 13
16 10 11 14 16 16 5 3 11 13 12 18 16 19 22 22 25 24 24 21 19 17 19 20 20 18 19 16 13 14 14 15 18 20 21 24 24 19 19 18 17 16 17 15
15 18 18 23 21 18 9 3 8 6 8 9 13 13 17 18 19 22 18 16 23 19 19 19 19 18 17 18 20 18 16 17 16 19 18 24 22 19 18 19 20 16 18 18
22 24 25 25 22 19 17 12 11 11 13 11 10 13 13 14 14 17 15 10 15 18 14 14 16 18 18 15 18 20 19 17 17 17 17 14 13 12 19 17 15 20 17 13
21 21 19 22 24 22 20 17 15 14 15 13 14 17 14 14 13 11 15 18 15 13 12 14 16 18 17 14 14 15 18 17 16 17 15 14 18 18 20 23 21 23 16 12
23 21 23 21 22 22 21 19 17 16 15 15 17 16 11 9 9 11 9 12 14 12 10 13 15 12 14 14 16 17 15 16 20 18 12 8 6 10 17 18 15 17 14 15
26 22 20 16 17 18 16 16 13 12 10 8 7 7 8 7 8 9 10 6 5 5 12 11 11 9 8 12 13 13 13 12 11 13 11 10 9 11 11 12 9 12 11 13
19 19 21 19 16 14 13 12 11 10 9 9 8 8 9 7 8 11 8 7 8 4 7 11 9 10 8 7 10 12 11 11 12 9 7 10 10 9 9 8 10 11 11 14
Wind_Direction
253 190 184 202 265 292 223 217 216 209 211 165 173 233 249 293 297 308 146 127 120 114 118 107 110 124 135 139 146 150 155 169 192 200 241 243 244 219 237 339 344 284 290 295
251 173 177 130 206 258 292 298 216 249 241 160 173 186 240 235 280 307 153 136 137 130 127 126 131 133 140 144 149 158 148 156 202 206 171 169 141 56 332 338 295 267 308 313
252 257 148 155 216 252 278 280 283 233 248 158 192 180 198 227 317 277 185 150 139 133 133 141 144 153 152 149 151 156 155 141 138 130 136 144 185 224 254 285 318 320 325 313
255 164 177 200 216 203 202 245 296 282 247 174 182 189 176 185 240 269 165 156 148 142 148 150 160 148 145 147 141 135 136 135 137 151 175 183 198 238 238 358 309 312 306 309
252 247 262 194 200 215 218 211 198 215 250 172 159 165 195 196 212 215 177 156 151 158 150 149 156 155 143 141 140 145 150 153 157 170 182 190 189 190 251 312 303 305 321 332
269 274 249 248 52 194 218 268 199 214 226 196 176 166 185 187 233 235 166 157 155 149 150 152 148 149 147 150 153 158 162 161 160 169 184 186 191 234 297 296 305 314 344 2
234 257 274 111 63 33 340 7 355 49 35 265 180 199 195 180 174 151 142 150 149 148 149 148 154 156 153 157 158 156 159 175 168 166 175 170 172 214 185 193 45 59 51 9
237 221 235 54 322 239 72 50 23 326 68 55 90 111 119 130 134 141 146 151 151 150 152 151 160 158 149 152 160 163 149 145 142 147 158 158 144 140 120 103 65 61 71 80
229 228 254 139 244 103 144 211 150 90 97 103 94 86 105 130 139 142 144 147 151 154 150 158 151 156 159 161 155 151 147 147 153 156 147 140 134 118 88 104 124 110 91 105
223 236 220 136 44 237 146 100 127 128 162 125 127 144 160 158 140 139 146 150 149 151 145 145 155 163 161 150 150 151 151 153 154 154 144 123 94 92 121 127 149 141 130 135
261 248 177 178 215 213 190 132 95 85 127 145 139 144 153 147 142 145 149 148 150 152 150 152 159 156 153 152 154 154 151 150 146 137 124 124 157 149 181 173 166 175 175 164
248 289 178 132 220 217 128 98 101 113 109 129 144 144 147 141 145 149 150 154 153 154 156 156 160 153 151 155 157 151 145 139 136 147 136 154 185 183 144 146 173 171 118 95
304 327 330 68 73 71 95 206 262 153 145 131 143 147 148 144 151 153 156 156 155 157 158 158 157 157 157 157 154 150 144 143 158 160 160 187 166 153 147 120 87 97 57 47
336 318 298 217 258 243 211 244 221 166 141 152 146 152 151 151 153 158 156 155 161 161 163 161 161 160 160 162 161 150 152 168 171 169 180 182 188 206 237 242 269 244 342 313
263 275 286 273 283 214 245 227 174 147 147 143 158 155 155 156 157 158 157 162 164 163 164 163 162 163 167 171 170 159 171 182 171 181 186 188 189 197 217 225 243 265 283 274
293 294 257 233 218 202 200 175 185 156 155 148 151 151 156 159 161 162 162 164 161 163 167 168 172 173 174 178 173 168 176 186 171 189 199 194 204 212 227 226 247 243 249 279
233 291 301 316 195 195 199 191 173 158 157 154 155 156 158 158 157 158 161 167 163 170 171 177 180 179 181 185 176 180 185 202 188 194 207 208 216 221 230 244 257 258 261 263
212 150 86 73 44 13 224 168 148 146 153 149 150 153 154 156 158 161 163 163 171 175 179 183 188 185 186 191 182 181 193 206 208 202 217 233 230 224 227 238 244 254 269 261
128 118 86 96 133 325 349 28 130 136 139 144 150 157 157 158 160 161 164 165 173 174 180 187 190 194 190 200 195 186 206 212 219 231 220 220 241 251 246 248 246 244 267 282
216 170 138 109 124 177 330 0 73 115 133 145 154 159 159 160 162 165 170 173 180 181 186 189 197 204 201 203 206 203 215 223 230 236 240 237 235 240 241 239 252 253 240 256
141 136 139 155 142 210 284 198 76 95 127 144 160 173 163 164 168 169 172 178 188 192 196 192 207 203 204 220 226 218 232 243 238 235 246 241 236 241 252 248 258 260 246 249
162 149 143 143 151 157 185 226 138 107 125 143 156 172 170 168 173 181 183 193 194 193 189 200 209 207 217 216 225 223 229 238 239 260 268 245 254 244 248 252 252 238 247 254
141 142 144 143 143 136 141 133 131 141 149 156 159 155 153 170 177 184 190 187 180 192 192 207 216 220 227 230 222 227 229 247 254 268 269 236 218 257 260 241 221 231 239 275
127 129 129 133 134 132 128 135 139 141 140 149 154 157 154 159 176 180 200 195 191 194 195 216 219 220 222 219 228 241 245 256 251 267 260 271 258 257 251 236 226 201 233 243
164 144 140 142 136 136 143 142 140 148 152 161 162 166 161 151 170 192 173 182 211 207 209 229 238 234 221 227 242 253 248 252 267 283 282 251 264 245 229 237 205 207 243 266
136 149 145 152 139 139 147 137 145 153 150 142 143 159 174 190 187 161 159 174 207 237 202 233 233 246 247 241 236 239 250 271 269 271 256 229 221 189 194 178 208 229 243 244
133 136 137 133 128 132 138 138 141 147 148 150 156 169 177 183 187 177 183 186 202 196 189 214 225 236 226 236 234 242 247 250 256 238 244 208 195 190 197 215 204 231 254 276